QPF
0.00 0.00 0.00 0.01 0.00 0.00 0.00 0.00 0.01 0.00 0.00 0.00 0.00 0.00 0.00 0.00 0.00 0.00 0.00 0.01 0.01 0.00 0.00 0.00 0.00 0.00 0.00 0.00 0.00 0.00 0.00 0.00 0.00 0.01 0.01 0.01 0.02 0.01 0.02 0.02 0.01 0.01 0.01 0.01
0.00 0.00 0.00 0.00 0.00 0.01 0.01 0.00 0.00 0.00 0.00 0.00 0.00 0.00 0.00 0.00 0.00 0.00 0.00 0.01 0.01 0.01 0.00 0.01 0.00 0.00 0.00 0.00 0.00 0.00 0.00 0.00 0.00 0.00 0.00 0.00 0.01 0.01 0.01 0.01 0.01 0.00 0.00 0.00
0.00 0.00 0.00 0.00 0.00 0.00 0.01 0.01 0.00 0.00 0.00 0.00 0.00 0.00 0.00 0.00 0.00 0.00 0.00 0.00 0.00 0.00 0.00 0.01 0.01 0.00 0.01 0.01 0.01 0.00 0.00 0.00 0.00 0.00 0.00 0.00 0.01 0.01 0.02 0.02 0.01 0.00 0.00 0.00
0.00 0.00 0.00 0.00 0.00 0.00 0.01 0.01 0.00 0.00 0.00 0.00 0.00 0.00 0.00 0.00 0.00 0.00 0.00 0.00 0.00 0.00 0.00 0.00 0.01 0.00 0.00 0.01 0.01 0.00 0.00 0.00 0.00 0.00 0.00 0.00 0.01 0.01 0.01 0.01 0.01 0.00 0.01 0.01
0.00 0.00 0.00 0.00 0.00 0.00 0.01 0.00 0.00 0.00 0.00 0.00 0.00 0.00 0.00 0.00 0.00 0.00 0.00 0.00 0.00 0.00 0.00 0.00 0.01 0.01 0.00 0.01 0.01 0.00 0.00 0.00 0.00 0.00 0.00 0.00 0.00 0.00 0.00 0.00 0.01 0.00 0.01 0.01
0.00 0.00 0.00 0.00 0.00 0.00 0.00 0.00 0.00 0.00 0.01 0.00 0.00 0.00 0.00 0.00 0.00 0.00 0.00 0.00 0.00 0.00 0.00 0.01 0.01 0.00 0.00 0.00 0.00 0.00 0.00 0.00 0.00 0.00 0.00 0.00 0.00 0.00 0.00 0.01 0.01 0.01 0.01 0.01
0.00 0.00 0.00 0.00 0.00 0.00 0.00 0.00 0.01 0.01 0.01 0.01 0.00 0.00 0.00 0.00 0.00 0.00 0.00 0.00 0.00 0.00 0.00 0.00 0.00 0.01 0.00 0.00 0.00 0.00 0.00 0.00 0.00 0.00 0.00 0.00 0.00 0.00 0.00 0.00 0.01 0.02 0.02 0.01
0.00 0.00 0.00 0.00 0.00 0.00 0.00 0.00 0.00 0.01 0.00 0.00 0.00 0.00 0.00 0.00 0.00 0.00 0.00 0.00 0.00 0.00 0.00 0.00 0.01 0.01 0.00 0.00 0.00 0.00 0.00 0.00 0.00 0.00 0.00 0.00 0.00 0.00 0.00 0.01 0.01 0.01 0.02 0.01
0.00 0.00 0.00 0.00 0.00 0.00 0.00 0.00 0.00 0.00 0.00 0.01 0.00 0.00 0.00 0.00 0.00 0.00 0.00 0.00 0.00 0.00 0.00 0.00 0.00 0.00 0.00 0.00 0.00 0.00 0.00 0.00 0.00 0.00 0.00 0.00 0.00 0.00 0.00 0.00 0.01 0.01 0.01 0.01
0.00 0.00 0.00 0.00 0.00 0.00 0.00 0.00 0.00 0.00 0.00 0.00 0.00 0.00 0.00 0.00 0.00 0.00 0.00 0.00 0.00 0.00 0.01 0.00 0.00 0.00 0.00 0.00 0.00 0.00 0.00 0.00 0.00 0.00 0.00 0.00 0.00 0.00 0.00 0.00 0.01 0.01 0.01 0.01
0.00 0.00 0.00 0.00 0.00 0.00 0.00 0.00 0.00 0.00 0.00 0.00 0.00 0.00 0.00 0.00 0.00 0.00 0.00 0.00 0.00 0.00 0.00 0.00 0.00 0.00 0.00 0.00 0.00 0.00 0.00 0.00 0.00 0.00 0.00 0.00 0.00 0.00 0.00 0.00 0.00 0.00 0.01 0.01
0.00 0.00 0.00 0.00 0.00 0.00 0.00 0.00 0.00 0.00 0.00 0.00 0.00 0.00 0.00 0.00 0.00 0.00 0.00 0.00 0.00 0.00 0.00 0.00 0.00 0.00 0.00 0.00 0.00 0.00 0.00 0.00 0.00 0.00 0.00 0.00 0.00 0.00 0.00 0.00 0.00 0.00 0.00 0.00
0.00 0.00 0.00 0.01 0.00 0.00 0.00 0.00 0.00 0.00 0.00 0.00 0.00 0.00 0.00 0.00 0.00 0.00 0.00 0.00 0.00 0.00 0.00 0.00 0.00 0.00 0.00 0.00 0.00 0.00 0.00 0.00 0.00 0.00 0.00 0.00 0.00 0.00 0.00 0.00 0.00 0.00 0.00 0.00
0.01 0.00 0.00 0.00 0.00 0.00 0.00 0.00 0.00 0.00 0.00 0.00 0.00 0.00 0.00 0.00 0.00 0.00 0.00 0.00 0.00 0.00 0.00 0.00 0.00 0.00 0.00 0.00 0.00 0.00 0.00 0.00 0.00 0.00 0.00 0.01 0.01 0.00 0.00 0.00 0.00 0.00 0.00 0.00
0.01 0.01 0.00 0.00 0.00 0.00 0.00 0.00 0.00 0.00 0.00 0.00 0.00 0.00 0.00 0.00 0.00 0.00 0.00 0.00 0.00 0.00 0.00 0.00 0.00 0.00 0.00 0.00 0.00 0.00 0.00 0.00 0.00 0.00 0.00 0.01 0.01 0.01 0.00 0.00 0.00 0.00 0.00 0.00
0.01 0.01 0.01 0.00 0.00 0.00 0.00 0.00 0.00 0.00 0.00 0.00 0.00 0.00 0.00 0.00 0.00 0.00 0.00 0.00 0.00 0.00 0.00 0.00 0.00 0.00 0.00 0.00 0.00 0.00 0.00 0.00 0.00 0.00 0.00 0.00 0.00 0.00 0.01 0.01 0.00 0.00 0.00 0.00
0.01 0.01 0.01 0.01 0.00 0.00 0.00 0.00 0.00 0.00 0.00 0.00 0.00 0.00 0.00 0.00 0.00 0.00 0.00 0.00 0.00 0.00 0.00 0.00 0.00 0.01 0.00 0.00 0.00 0.01 0.00 0.00 0.00 0.00 0.00 0.00 0.00 0.00 0.00 0.00 0.00 0.00 0.00 0.00
0.00 0.01 0.01 0.01 0.01 0.01 0.01 0.00 0.00 0.00 0.00 0.00 0.00 0.00 0.00 0.00 0.00 0.00 0.00 0.00 0.00 0.00 0.00 0.00 0.00 0.00 0.00 0.00 0.00 0.01 0.01 0.01 0.01 0.01 0.00 0.00 0.00 0.00 0.00 0.00 0.00 0.00 0.00 0.00
0.00 0.00 0.01 0.01 0.01 0.01 0.00 0.00 0.00 0.00 0.00 0.00 0.00 0.00 0.00 0.00 0.00 0.00 0.01 0.01 0.01 0.00 0.00 0.00 0.00 0.00 0.00 0.00 0.00 0.00 0.00 0.01 0.01 0.01 0.01 0.00 0.00 0.00 0.00 0.00 0.00 0.00 0.00 0.00
0.00 0.00 0.01 0.01 0.01 0.00 0.00 0.00 0.00 0.00 0.00 0.00 0.00 0.00 0.00 0.00 0.00 0.00 0.01 0.01 0.00 0.00 0.00 0.00 0.00 0.00 0.00 0.00 0.00 0.00 0.00 0.00 0.00 0.01 0.01 0.01 0.01 0.00 0.00 0.00 0.00 0.00 0.00 0.00
0.00 0.00 0.00 0.00 0.01 0.00 0.00 0.00 0.00 0.00 0.00 0.00 0.00 0.00 0.00 0.00 0.00 0.00 0.00 0.00 0.00 0.00 0.00 0.00 0.00 0.00 0.00 0.00 0.00 0.00 0.00 0.00 0.00 0.00 0.00 0.01 0.01 0.01 0.00 0.00 0.00 0.00 0.00 0.00
0.00 0.01 0.01 0.01 0.01 0.00 0.00 0.00 0.00 0.00 0.00 0.00 0.00 0.00 0.00 0.00 0.00 0.00 0.00 0.00 0.00 0.00 0.00 0.00 0.00 0.00 0.00 0.00 0.00 0.00 0.00 0.01 0.00 0.00 0.00 0.00 0.00 0.01 0.01 0.01 0.00 0.01 0.01 0.01
0.00 0.00 0.00 0.00 0.00 0.00 0.00 0.00 0.00 0.00 0.00 0.00 0.00 0.00 0.00 0.00 0.00 0.00 0.00 0.00 0.00 0.00 0.00 0.00 0.00 0.00 0.00 0.00 0.00 0.00 0.00 0.00 0.00 0.00 0.00 0.00 0.00 0.00 0.01 0.01 0.01 0.01 0.01 0.01
0.00 0.00 0.00 0.00 0.00 0.00 0.00 0.00 0.00 0.00 0.00 0.00 0.00 0.00 0.00 0.00 0.00 0.00 0.00 0.00 0.00 0.00 0.00 0.00 0.00 0.00 0.00 0.00 0.01 0.01 0.01 0.00 0.00 0.00 0.00 0.00 0.00 0.00 0.01 0.01 0.02 0.02 0.02 0.02
0.01 0.01 0.01 0.00 0.00 0.00 0.00 0.00 0.00 0.00 0.00 0.00 0.00 0.00 0.01 0.00 0.00 0.00 0.00 0.00 0.00 0.00 0.00 0.00 0.00 0.00 0.00 0.00 0.00 0.00 0.01 0.00 0.00 0.00 0.01 0.01 0.01 0.01 0.01 0.02 0.03 0.03 0.03 0.03
0.00 0.00 0.01 0.00 0.00 0.00 0.00 0.00 0.00 0.00 0.00 0.00 0.00 0.00 0.00 0.00 0.00 0.00 0.00 0.00 0.00 0.00 0.00 0.00 0.01 0.00 0.00 0.00 0.00 0.00 0.00 0.00 0.00 0.00 0.01 0.01 0.01 0.01 0.02 0.02 0.04 0.05 0.04 0.03
MSLP
1016.21 1016.82 1017.36 1017.80 1018.12 1018.32 1018.41 1018.43 1018.37 1018.25 1018.08 1017.83 1017.53 1017.16 1016.76 1016.35 1015.98 1015.69 1015.51 1015.44 1015.50 1015.65 1015.86 1016.08 1016.28 1016.42 1016.50 1016.52 1016.49 1016.43 1016.38 1016.33 1016.29 1016.27 1016.25 1016.22 1016.17 1016.10 1016.01 1015.92 1015.84 1015.80 1015.82 1015.90
1016.86 1017.40 1017.86 1018.22 1018.47 1018.63 1018.72 1018.74 1018.72 1018.65 1018.51 1018.29 1017.99 1017.60 1017.14 1016.67 1016.21 1015.84 1015.58 1015.47 1015.49 1015.64 1015.86 1016.11 1016.35 1016.53 1016.64 1016.68 1016.67 1016.63 1016.57 1016.53 1016.51 1016.50 1016.50 1016.49 1016.46 1016.40 1016.32 1016.23 1016.14 1016.09 1016.10 1016.17
1017.40 1017.84 1018.19 1018.46 1018.65 1018.78 1018.87 1018.93 1018.97 1018.96 1018.88 1018.71 1018.43 1018.03 1017.54 1017.00 1016.47 1016.02 1015.69 1015.51 1015.49 1015.62 1015.85 1016.12 1016.38 1016.59 1016.74 1016.81 1016.81 1016.78 1016.74 1016.71 1016.69 1016.70 1016.71 1016.71 1016.69 1016.64 1016.57 1016.48 1016.40 1016.35 1016.36 1016.44
1017.80 1018.11 1018.35 1018.53 1018.66 1018.77 1018.88 1018.99 1019.11 1019.19 1019.19 1019.08 1018.84 1018.45 1017.94 1017.35 1016.75 1016.22 1015.82 1015.58 1015.51 1015.60 1015.82 1016.09 1016.37 1016.61 1016.78 1016.88 1016.91 1016.90 1016.87 1016.84 1016.83 1016.84 1016.85 1016.86 1016.84 1016.80 1016.74 1016.66 1016.60 1016.57 1016.59 1016.68
1018.06 1018.26 1018.39 1018.48 1018.57 1018.67 1018.81 1018.99 1019.19 1019.37 1019.46 1019.43 1019.23 1018.86 1018.33 1017.71 1017.05 1016.45 1015.97 1015.66 1015.54 1015.59 1015.77 1016.04 1016.33 1016.59 1016.78 1016.91 1016.97 1016.98 1016.96 1016.94 1016.94 1016.94 1016.94 1016.94 1016.93 1016.89 1016.83 1016.77 1016.72 1016.71 1016.76 1016.86
1018.23 1018.31 1018.36 1018.39 1018.44 1018.56 1018.74 1019.00 1019.28 1019.55 1019.73 1019.76 1019.61 1019.26 1018.73 1018.07 1017.37 1016.70 1016.15 1015.77 1015.58 1015.57 1015.72 1015.96 1016.24 1016.51 1016.73 1016.88 1016.97 1017.01 1017.01 1017.01 1017.00 1017.00 1017.00 1016.98 1016.96 1016.91 1016.86 1016.80 1016.78 1016.78 1016.85 1016.97
1018.35 1018.35 1018.33 1018.32 1018.38 1018.51 1018.75 1019.07 1019.44 1019.78 1020.03 1020.11 1020.00 1019.66 1019.12 1018.43 1017.68 1016.96 1016.34 1015.88 1015.62 1015.55 1015.65 1015.85 1016.12 1016.38 1016.61 1016.79 1016.91 1016.98 1017.02 1017.04 1017.05 1017.05 1017.04 1017.01 1016.97 1016.91 1016.85 1016.79 1016.77 1016.79 1016.86 1016.99
1018.44 1018.40 1018.35 1018.35 1018.42 1018.60 1018.88 1019.26 1019.68 1020.08 1020.36 1020.48 1020.37 1020.03 1019.48 1018.76 1017.97 1017.20 1016.52 1015.99 1015.66 1015.52 1015.56 1015.71 1015.94 1016.19 1016.43 1016.63 1016.79 1016.90 1016.98 1017.03 1017.06 1017.08 1017.07 1017.04 1016.99 1016.91 1016.83 1016.76 1016.73 1016.74 1016.81 1016.94
1018.52 1018.48 1018.46 1018.48 1018.59 1018.81 1019.14 1019.56 1020.01 1020.42 1020.71 1020.82 1020.70 1020.34 1019.77 1019.03 1018.21 1017.40 1016.67 1016.09 1015.69 1015.48 1015.45 1015.54 1015.73 1015.95 1016.18 1016.40 1016.58 1016.74 1016.87 1016.97 1017.05 1017.10 1017.11 1017.09 1017.02 1016.94 1016.84 1016.75 1016.69 1016.68 1016.73 1016.84
1018.60 1018.60 1018.62 1018.70 1018.87 1019.13 1019.49 1019.92 1020.36 1020.75 1021.01 1021.08 1020.93 1020.54 1019.95 1019.19 1018.36 1017.52 1016.77 1016.15 1015.70 1015.43 1015.32 1015.36 1015.48 1015.67 1015.88 1016.10 1016.31 1016.51 1016.69 1016.85 1016.99 1017.08 1017.14 1017.14 1017.08 1016.99 1016.88 1016.76 1016.67 1016.63 1016.65 1016.73
1018.66 1018.73 1018.83 1018.97 1019.19 1019.49 1019.86 1020.26 1020.66 1020.99 1021.19 1021.20 1021.00 1020.58 1019.97 1019.21 1018.38 1017.56 1016.80 1016.17 1015.69 1015.37 1015.21 1015.17 1015.23 1015.36 1015.54 1015.74 1015.96 1016.19 1016.42 1016.64 1016.84 1017.01 1017.11 1017.16 1017.13 1017.06 1016.94 1016.81 1016.70 1016.62 1016.60 1016.64
1018.72 1018.86 1019.03 1019.24 1019.50 1019.81 1020.16 1020.52 1020.85 1021.09 1021.20 1021.14 1020.88 1020.43 1019.82 1019.08 1018.29 1017.51 1016.79 1016.17 1015.68 1015.34 1015.12 1015.02 1015.00 1015.06 1015.18 1015.35 1015.56 1015.80 1016.06 1016.34 1016.60 1016.83 1017.00 1017.11 1017.14 1017.09 1017.00 1016.87 1016.75 1016.66 1016.61 1016.61
1018.78 1018.99 1019.22 1019.47 1019.75 1020.04 1020.35 1020.63 1020.87 1021.01 1021.02 1020.88 1020.57 1020.10 1019.51 1018.82 1018.10 1017.39 1016.74 1016.17 1015.70 1015.34 1015.08 1014.92 1014.82 1014.80 1014.84 1014.95 1015.12 1015.34 1015.62 1015.93 1016.24 1016.53 1016.78 1016.95 1017.05 1017.06 1017.01 1016.92 1016.81 1016.72 1016.67 1016.65
1018.87 1019.14 1019.40 1019.66 1019.93 1020.18 1020.41 1020.60 1020.72 1020.75 1020.67 1020.46 1020.11 1019.65 1019.10 1018.49 1017.86 1017.25 1016.69 1016.19 1015.76 1015.41 1015.12 1014.89 1014.72 1014.60 1014.55 1014.57 1014.67 1014.85 1015.11 1015.42 1015.76 1016.11 1016.42 1016.67 1016.84 1016.93 1016.95 1016.92 1016.86 1016.80 1016.76 1016.75
1019.04 1019.32 1019.59 1019.83 1020.05 1020.23 1020.37 1020.45 1020.46 1020.38 1020.21 1019.94 1019.58 1019.15 1018.66 1018.14 1017.63 1017.13 1016.68 1016.26 1015.88 1015.54 1015.23 1014.95 1014.69 1014.48 1014.32 1014.23 1014.24 1014.35 1014.56 1014.85 1015.20 1015.57 1015.93 1016.25 1016.50 1016.68 1016.79 1016.84 1016.85 1016.85 1016.85 1016.88
1019.30 1019.57 1019.80 1019.99 1020.14 1020.23 1020.27 1020.24 1020.14 1019.97 1019.73 1019.43 1019.07 1018.68 1018.26 1017.85 1017.45 1017.07 1016.72 1016.38 1016.06 1015.74 1015.41 1015.07 1014.74 1014.42 1014.16 1013.97 1013.87 1013.89 1014.02 1014.27 1014.59 1014.96 1015.35 1015.72 1016.05 1016.31 1016.51 1016.66 1016.76 1016.84 1016.90 1016.97
1019.64 1019.87 1020.05 1020.17 1020.22 1020.22 1020.15 1020.02 1019.84 1019.60 1019.31 1018.99 1018.66 1018.31 1017.97 1017.66 1017.36 1017.09 1016.82 1016.56 1016.28 1015.97 1015.62 1015.24 1014.83 1014.43 1014.06 1013.77 1013.57 1013.49 1013.54 1013.71 1013.99 1014.34 1014.74 1015.14 1015.52 1015.85 1016.14 1016.37 1016.56 1016.72 1016.86 1016.99
1020.03 1020.20 1020.30 1020.34 1020.31 1020.21 1020.06 1019.84 1019.59 1019.31 1019.00 1018.69 1018.38 1018.09 1017.83 1017.59 1017.38 1017.18 1016.98 1016.76 1016.50 1016.20 1015.83 1015.40 1014.94 1014.47 1014.03 1013.64 1013.35 1013.18 1013.15 1013.25 1013.46 1013.78 1014.15 1014.54 1014.94 1015.32 1015.67 1015.97 1016.24 1016.47 1016.68 1016.87
1020.38 1020.49 1020.52 1020.48 1020.37 1020.19 1019.97 1019.70 1019.42 1019.11 1018.82 1018.53 1018.26 1018.02 1017.82 1017.64 1017.48 1017.32 1017.15 1016.95 1016.70 1016.38 1015.99 1015.54 1015.04 1014.52 1014.02 1013.58 1013.22 1012.98 1012.87 1012.89 1013.04 1013.29 1013.62 1013.99 1014.38 1014.76 1015.13 1015.47 1015.79 1016.07 1016.34 1016.57
1020.61 1020.66 1020.63 1020.53 1020.35 1020.13 1019.86 1019.58 1019.28 1019.00 1018.73 1018.48 1018.26 1018.07 1017.90 1017.76 1017.62 1017.48 1017.30 1017.09 1016.82 1016.48 1016.07 1015.59 1015.08 1014.54 1014.02 1013.54 1013.15 1012.86 1012.69 1012.65 1012.73 1012.91 1013.17 1013.49 1013.83 1014.19 1014.55 1014.89 1015.22 1015.53 1015.82 1016.09
1020.68 1020.69 1020.60 1020.45 1020.23 1019.98 1019.70 1019.43 1019.16 1018.91 1018.69 1018.49 1018.32 1018.17 1018.03 1017.90 1017.76 1017.60 1017.40 1017.15 1016.85 1016.48 1016.05 1015.56 1015.04 1014.51 1013.99 1013.51 1013.11 1012.80 1012.59 1012.50 1012.51 1012.62 1012.80 1013.04 1013.31 1013.61 1013.92 1014.23 1014.54 1014.84 1015.14 1015.43
1020.58 1020.54 1020.41 1020.22 1019.99 1019.74 1019.48 1019.23 1019.01 1018.82 1018.65 1018.51 1018.39 1018.27 1018.15 1018.01 1017.85 1017.65 1017.41 1017.11 1016.77 1016.37 1015.92 1015.43 1014.92 1014.40 1013.91 1013.45 1013.06 1012.74 1012.51 1012.38 1012.33 1012.37 1012.46 1012.61 1012.80 1013.02 1013.26 1013.51 1013.77 1014.05 1014.33 1014.63
1020.34 1020.26 1020.10 1019.89 1019.66 1019.41 1019.18 1018.98 1018.81 1018.68 1018.58 1018.49 1018.40 1018.31 1018.19 1018.04 1017.84 1017.60 1017.31 1016.96 1016.58 1016.14 1015.68 1015.19 1014.70 1014.21 1013.75 1013.32 1012.95 1012.64 1012.40 1012.23 1012.13 1012.09 1012.11 1012.17 1012.27 1012.40 1012.55 1012.74 1012.94 1013.18 1013.44 1013.72
1020.04 1019.92 1019.74 1019.52 1019.29 1019.06 1018.86 1018.71 1018.59 1018.51 1018.45 1018.40 1018.34 1018.26 1018.13 1017.95 1017.72 1017.43 1017.09 1016.70 1016.27 1015.81 1015.34 1014.86 1014.38 1013.92 1013.49 1013.10 1012.74 1012.44 1012.19 1011.99 1011.84 1011.74 1011.69 1011.67 1011.68 1011.73 1011.81 1011.93 1012.08 1012.27 1012.50 1012.78
1019.78 1019.62 1019.42 1019.18 1018.95 1018.74 1018.57 1018.44 1018.36 1018.31 1018.27 1018.24 1018.18 1018.09 1017.94 1017.73 1017.46 1017.13 1016.74 1016.31 1015.85 1015.38 1014.89 1014.42 1013.96 1013.52 1013.11 1012.74 1012.39 1012.09 1011.83 1011.60 1011.42 1011.26 1011.15 1011.06 1011.01 1011.00 1011.02 1011.09 1011.20 1011.36 1011.57 1011.84
1019.64 1019.44 1019.21 1018.97 1018.73 1018.53 1018.36 1018.24 1018.16 1018.10 1018.06 1018.01 1017.93 1017.80 1017.62 1017.36 1017.04 1016.67 1016.24 1015.78 1015.30 1014.82 1014.33 1013.86 1013.42 1012.99 1012.60 1012.23 1011.89 1011.58 1011.30 1011.04 1010.82 1010.63 1010.47 1010.34 1010.26 1010.21 1010.20 1010.25 1010.34 1010.49 1010.69 1010.94
Thickness
5762 5756 5748 5751 5753 5750 5746 5740 5736 5740 5748 5743 5740 5741 5747 5751 5749 5747 5747 5746 5744 5744 5745 5743 5739 5737 5735 5733 5731 5729 5726 5724 5721 5718 5717 5715 5714 5713 5712 5711 5709 5708 5707 5707
5751 5747 5754 5756 5751 5746 5742 5737 5736 5740 5745 5742 5739 5741 5748 5751 5749 5749 5748 5747 5745 5743 5743 5739 5738 5737 5735 5732 5730 5729 5726 5723 5720 5717 5717 5715 5713 5712 5710 5708 5707 5707 5706 5705
5745 5749 5754 5748 5743 5739 5738 5736 5735 5734 5738 5742 5738 5738 5744 5749 5751 5750 5750 5750 5749 5745 5743 5740 5737 5735 5733 5730 5729 5727 5725 5722 5719 5716 5715 5712 5710 5709 5708 5706 5705 5705 5704 5703
5744 5749 5746 5742 5739 5739 5731 5740 5737 5733 5731 5730 5732 5723 5739 5746 5746 5747 5748 5749 5749 5747 5744 5741 5737 5734 5732 5730 5730 5728 5725 5722 5718 5716 5713 5710 5707 5705 5706 5706 5704 5703 5702 5701
5738 5743 5740 5737 5739 5740 5737 5740 5737 5734 5730 5728 5732 5725 5736 5744 5740 5745 5749 5750 5749 5748 5745 5742 5738 5735 5733 5730 5727 5726 5723 5720 5716 5714 5711 5708 5707 5706 5706 5705 5703 5703 5701 5700
5739 5744 5744 5742 5743 5741 5738 5734 5731 5731 5729 5716 5726 5722 5725 5741 5741 5745 5749 5751 5750 5748 5745 5742 5739 5734 5731 5728 5725 5723 5720 5717 5714 5711 5710 5708 5706 5704 5703 5702 5701 5701 5701 5700
5726 5733 5740 5742 5734 5735 5735 5725 5714 5712 5711 5715 5727 5722 5728 5744 5747 5747 5747 5750 5750 5747 5744 5740 5735 5731 5729 5726 5723 5721 5718 5716 5713 5711 5709 5708 5706 5705 5703 5702 5701 5700 5700 5699
5716 5717 5731 5736 5734 5730 5730 5729 5714 5705 5707 5716 5721 5721 5736 5747 5748 5749 5749 5750 5749 5746 5743 5739 5735 5732 5729 5726 5723 5721 5718 5715 5713 5710 5709 5708 5706 5704 5703 5701 5701 5699 5699 5699
5718 5717 5728 5731 5735 5734 5726 5725 5731 5720 5713 5709 5719 5728 5739 5745 5743 5744 5745 5744 5743 5742 5740 5738 5735 5732 5729 5726 5722 5720 5717 5714 5712 5710 5708 5706 5705 5703 5702 5701 5700 5699 5699 5698
5720 5712 5719 5723 5727 5725 5729 5727 5720 5712 5700 5700 5710 5717 5725 5732 5735 5739 5740 5739 5740 5740 5738 5736 5734 5731 5729 5726 5722 5720 5717 5714 5712 5709 5707 5705 5704 5702 5700 5700 5698 5698 5698 5696
5716 5709 5708 5713 5713 5714 5714 5714 5716 5715 5712 5703 5701 5715 5735 5733 5734 5735 5737 5739 5738 5737 5736 5734 5732 5730 5728 5725 5721 5718 5716 5713 5711 5709 5706 5704 5702 5701 5699 5697 5696 5696 5696 5696
5707 5708 5701 5706 5713 5715 5715 5713 5712 5702 5703 5707 5705 5714 5736 5735 5735 5734 5735 5735 5736 5734 5733 5732 5730 5728 5725 5722 5720 5717 5715 5712 5709 5708 5705 5703 5701 5699 5698 5696 5695 5695 5695 5694
5699 5698 5690 5689 5695 5702 5704 5705 5706 5707 5704 5701 5697 5709 5732 5733 5731 5731 5731 5731 5731 5729 5729 5728 5726 5724 5722 5719 5718 5715 5714 5711 5708 5705 5703 5701 5699 5697 5696 5695 5693 5693 5692 5692
5694 5693 5691 5687 5694 5697 5695 5695 5697 5699 5695 5696 5702 5709 5720 5722 5723 5725 5726 5726 5727 5725 5724 5723 5721 5720 5719 5717 5716 5714 5711 5709 5706 5703 5701 5698 5697 5696 5695 5694 5692 5691 5691 5690
5687 5684 5686 5688 5690 5691 5691 5690 5691 5692 5697 5695 5704 5705 5712 5718 5718 5720 5721 5722 5720 5719 5718 5717 5716 5716 5715 5713 5712 5711 5709 5706 5704 5701 5699 5696 5695 5694 5692 5691 5689 5688 5688 5687
5677 5675 5676 5675 5679 5681 5681 5688 5690 5690 5693 5695 5696 5700 5714 5717 5717 5716 5717 5716 5714 5714 5713 5713 5713 5713 5712 5711 5709 5708 5705 5703 5702 5699 5696 5695 5692 5691 5689 5688 5687 5686 5685 5685
5667 5667 5664 5668 5670 5670 5673 5688 5689 5689 5694 5694 5692 5701 5708 5707 5707 5710 5711 5711 5711 5710 5709 5709 5710 5710 5709 5709 5708 5706 5704 5701 5699 5697 5694 5692 5690 5688 5686 5685 5683 5682 5681 5681
5658 5657 5656 5658 5657 5654 5684 5694 5691 5687 5690 5693 5695 5699 5701 5702 5705 5707 5709 5707 5707 5707 5706 5706 5706 5706 5707 5707 5705 5704 5702 5698 5696 5694 5692 5689 5687 5684 5683 5681 5680 5679 5679 5677
5654 5650 5647 5648 5650 5661 5674 5681 5682 5680 5681 5691 5691 5693 5695 5698 5698 5701 5705 5705 5704 5704 5704 5704 5704 5704 5704 5703 5702 5700 5698 5695 5693 5691 5689 5687 5684 5682 5679 5678 5677 5676 5675 5674
5644 5645 5642 5640 5638 5647 5669 5678 5682 5677 5672 5685 5687 5687 5688 5687 5684 5693 5699 5698 5698 5698 5699 5699 5699 5699 5698 5697 5697 5695 5693 5691 5689 5688 5686 5684 5682 5680 5677 5675 5674 5673 5671 5670
5631 5630 5632 5634 5636 5652 5668 5671 5670 5657 5670 5679 5681 5681 5681 5680 5684 5689 5691 5691 5692 5692 5692 5693 5693 5692 5692 5692 5691 5689 5689 5687 5686 5684 5681 5679 5678 5677 5675 5673 5671 5669 5667 5665
5632 5630 5631 5632 5630 5642 5661 5660 5659 5666 5673 5673 5673 5674 5674 5675 5677 5679 5680 5682 5684 5684 5685 5686 5686 5686 5686 5686 5685 5685 5683 5683 5680 5678 5675 5674 5673 5672 5670 5668 5666 5665 5663 5661
5631 5636 5639 5640 5644 5652 5655 5656 5659 5662 5662 5664 5664 5665 5666 5667 5668 5670 5672 5673 5676 5677 5678 5680 5680 5679 5680 5680 5679 5678 5678 5676 5674 5672 5670 5669 5668 5667 5666 5663 5661 5659 5659 5658
5626 5627 5628 5631 5639 5643 5646 5648 5650 5652 5653 5655 5656 5657 5658 5659 5662 5663 5665 5667 5668 5670 5671 5672 5673 5673 5674 5675 5674 5673 5672 5671 5670 5667 5666 5665 5664 5663 5661 5659 5658 5656 5655 5654
5619 5618 5619 5623 5631 5632 5636 5639 5641 5643 5645 5646 5647 5649 5650 5652 5654 5656 5657 5659 5660 5661 5663 5665 5666 5667 5668 5669 5669 5668 5666 5665 5664 5663 5662 5660 5659 5658 5655 5654 5653 5652 5652 5652
5615 5614 5613 5619 5627 5626 5630 5633 5633 5633 5635 5638 5639 5641 5643 5645 5647 5649 5651 5652 5653 5655 5656 5658 5659 5661 5662 5662 5662 5662 5661 5660 5659 5658 5657 5655 5653 5652 5650 5648 5645 5643 5643 5643